WMT7994 LEPA-LIRF

Flight info

Callsign WMT7994
Flight time 1h 12m
Altitude 34000
Route MORSS DCT BAVON DCT ORKUM DCT ELSAG DCT ALG DCT ROMPO DCT RUXOP DCT BATOX DCT TINTO L5 VALMA
Aircraft A321/M-SDE3FGHIRWY/LB1

Departure

Time 2026-05-07 14:58
Airport Palma de Mallorca Airport (LEPA)

Arrival

Time 2026-05-07 16:10
Airport Rome–Fiumicino Leonardo da Vinci International Airport (LIRF)
Time Latitude Longitude Altitude Speed Heading
2026-05-07 14:30 39.54754 2.73626 36 ft 0 kts 58°
2026-05-07 14:48 39.54754 2.73625 38 ft 1 kts 58°
2026-05-07 14:48 39.54746 2.73607 36 ft 3 kts 70°
2026-05-07 14:48 39.54742 2.73582 36 ft 3 kts 95°
2026-05-07 14:48 39.54747 2.73558 37 ft 3 kts 123°
2026-05-07 14:49 39.54759 2.73540 37 ft 2 kts 146°
2026-05-07 14:49 39.54763 2.73536 37 ft 0 kts 149°
2026-05-07 14:53 39.54749 2.73547 35 ft 6 kts 149°
2026-05-07 14:53 39.54706 2.73580 38 ft 8 kts 149°
2026-05-07 14:53 39.54645 2.73617 38 ft 9 kts 167°
2026-05-07 14:53 39.54586 2.73639 38 ft 8 kts 173°
2026-05-07 14:54 39.54539 2.73597 38 ft 9 kts 232°
2026-05-07 14:54 39.54506 2.73527 38 ft 10 kts 239°
2026-05-07 14:54 39.54459 2.73427 38 ft 14 kts 238°
2026-05-07 14:54 39.54409 2.73321 38 ft 14 kts 238°
2026-05-07 14:55 39.54364 2.73226 38 ft 8 kts 238°
2026-05-07 14:55 39.54335 2.73168 37 ft 8 kts 230°
2026-05-07 14:55 39.54301 2.73159 38 ft 4 kts 154°
2026-05-07 14:55 39.54280 2.73189 38 ft 7 kts 124°
2026-05-07 14:56 39.54266 2.73277 38 ft 13 kts 88°
2026-05-07 14:56 39.54267 2.73372 38 ft 10 kts 89°
2026-05-07 14:56 39.54271 2.73464 38 ft 10 kts 76°
2026-05-07 14:56 39.54304 2.73546 38 ft 11 kts 59°
2026-05-07 14:57 39.54392 2.73734 38 ft 55 kts 59°
2026-05-07 14:57 39.54712 2.74411 39 ft 119 kts 58°
2026-05-07 14:57 39.55234 2.75519 69 ft 164 kts 59°
2026-05-07 14:57 39.55843 2.76812 605 ft 169 kts 60°
2026-05-07 14:58 39.56450 2.78143 1222 ft 175 kts 59°
2026-05-07 14:58 39.57068 2.79531 1838 ft 183 kts 62°
2026-05-07 14:58 39.57746 2.81052 2084 ft 202 kts 62°
2026-05-07 14:58 39.58472 2.82643 2689 ft 205 kts 61°
2026-05-07 14:59 39.59205 2.84237 3301 ft 209 kts 61°
2026-05-07 14:59 39.59947 2.85873 3888 ft 213 kts 62°
2026-05-07 14:59 39.60702 2.87534 4517 ft 215 kts 60°
2026-05-07 14:59 39.61465 2.89199 5148 ft 215 kts 61°
2026-05-07 15:00 39.62232 2.90886 5701 ft 218 kts 61°
2026-05-07 15:00 39.62972 2.92620 6202 ft 227 kts 69°
2026-05-07 15:00 39.63477 2.94660 6338 ft 251 kts 75°
2026-05-07 15:00 39.63983 2.96919 6709 ft 264 kts 76°
2026-05-07 15:01 39.64485 2.99239 7340 ft 270 kts 76°
2026-05-07 15:01 39.64987 3.01600 8035 ft 273 kts 76°
2026-05-07 15:01 39.65496 3.03991 8728 ft 277 kts 76°
2026-05-07 15:01 39.66017 3.06417 9363 ft 282 kts 77°
2026-05-07 15:02 39.66546 3.08876 10042 ft 285 kts 76°
2026-05-07 15:02 39.67094 3.11412 10352 ft 302 kts 77°
2026-05-07 15:02 39.67673 3.14094 10491 ft 324 kts 76°
2026-05-07 15:02 39.68308 3.17028 10800 ft 338 kts 77°
2026-05-07 15:03 39.68945 3.19983 11352 ft 343 kts 76°
2026-05-07 15:03 39.69593 3.22990 11937 ft 347 kts 76°
2026-05-07 15:03 39.70247 3.26028 12542 ft 351 kts 76°
2026-05-07 15:03 39.70899 3.29063 13143 ft 356 kts 76°
2026-05-07 15:04 39.71577 3.32217 13756 ft 360 kts 77°
2026-05-07 15:04 39.72242 3.35321 14273 ft 364 kts 77°
2026-05-07 15:04 39.72923 3.38494 14800 ft 368 kts 77°
2026-05-07 15:04 39.73616 3.41725 15333 ft 372 kts 76°
2026-05-07 15:05 39.74310 3.44978 15864 ft 376 kts 76°
2026-05-07 15:05 39.75009 3.48257 16386 ft 380 kts 76°
2026-05-07 15:05 39.75719 3.51583 16920 ft 383 kts 77°
2026-05-07 15:05 39.76436 3.54945 17477 ft 386 kts 77°
2026-05-07 15:06 39.77157 3.58330 17999 ft 390 kts 77°
2026-05-07 15:06 39.77884 3.61750 18472 ft 394 kts 77°
2026-05-07 15:06 39.78614 3.65196 18912 ft 398 kts 77°
2026-05-07 15:06 39.79350 3.68682 19347 ft 402 kts 77°
2026-05-07 15:07 39.80092 3.72206 19783 ft 406 kts 77°
2026-05-07 15:07 39.80840 3.75757 20231 ft 409 kts 77°
2026-05-07 15:07 39.81595 3.79348 20672 ft 413 kts 77°
2026-05-07 15:07 39.82357 3.82979 21064 ft 419 kts 77°
2026-05-07 15:08 39.83126 3.86655 21449 ft 424 kts 77°
2026-05-07 15:08 39.83892 3.90325 21865 ft 428 kts 77°
2026-05-07 15:08 39.84686 3.94130 22273 ft 432 kts 78°
2026-05-07 15:08 39.85464 3.97869 22684 ft 435 kts 78°
2026-05-07 15:09 39.86258 4.01691 23091 ft 439 kts 78°
2026-05-07 15:09 39.87057 4.05543 23483 ft 442 kts 78°
2026-05-07 15:09 39.87861 4.09421 23816 ft 446 kts 78°
2026-05-07 15:09 39.88667 4.13311 24145 ft 449 kts 78°
2026-05-07 15:10 39.89483 4.17265 24477 ft 452 kts 78°
2026-05-07 15:10 39.90297 4.21226 24777 ft 455 kts 78°
2026-05-07 15:10 39.91117 4.25214 25073 ft 458 kts 78°
2026-05-07 15:10 39.91945 4.29246 25379 ft 461 kts 78°
2026-05-07 15:11 39.92777 4.33300 25682 ft 464 kts 78°
2026-05-07 15:11 39.93613 4.37383 25991 ft 467 kts 78°
2026-05-07 15:11 39.94453 4.41482 26291 ft 470 kts 78°
2026-05-07 15:11 39.95298 4.45610 26611 ft 472 kts 78°
2026-05-07 15:12 39.96143 4.49755 26903 ft 475 kts 78°
2026-05-07 15:12 39.96990 4.53937 27204 ft 478 kts 78°
2026-05-07 15:12 39.97837 4.58134 27479 ft 480 kts 78°
2026-05-07 15:12 39.98689 4.62359 27739 ft 484 kts 78°
2026-05-07 15:13 39.99547 4.66611 28009 ft 486 kts 78°
2026-05-07 15:13 40.00409 4.70886 28285 ft 489 kts 78°
2026-05-07 15:13 40.01273 4.75190 28557 ft 492 kts 78°
2026-05-07 15:13 40.02141 4.79520 28833 ft 494 kts 78°
2026-05-07 15:14 40.03012 4.83865 29103 ft 497 kts 78°
2026-05-07 15:14 40.03885 4.88237 29371 ft 499 kts 79°
2026-05-07 15:14 40.04758 4.92632 29647 ft 501 kts 79°
2026-05-07 15:14 40.05634 4.97041 29876 ft 504 kts 78°
2026-05-07 15:15 40.06505 5.01438 30103 ft 507 kts 78°
2026-05-07 15:15 40.07392 5.05914 30347 ft 509 kts 79°
2026-05-07 15:15 40.08275 5.10375 30691 ft 508 kts 79°
2026-05-07 15:15 40.09154 5.14837 31028 ft 507 kts 79°
2026-05-07 15:16 40.10032 5.19300 31363 ft 506 kts 79°
2026-05-07 15:16 40.10910 5.23754 31695 ft 506 kts 80°
2026-05-07 15:16 40.11784 5.28211 32027 ft 505 kts 80°
2026-05-07 15:16 40.12647 5.32643 32349 ft 505 kts 80°
2026-05-07 15:17 40.13510 5.37088 32669 ft 505 kts 80°
2026-05-07 15:17 40.14373 5.41526 32962 ft 505 kts 80°
2026-05-07 15:17 40.15235 5.45964 33270 ft 504 kts 81°
2026-05-07 15:17 40.16097 5.50420 33588 ft 504 kts 81°
2026-05-07 15:18 40.16943 5.54803 33884 ft 504 kts 81°
2026-05-07 15:18 40.17810 5.59297 33955 ft 501 kts 81°
2026-05-07 15:18 40.19489 5.68035 33955 ft 497 kts 81°
2026-05-07 15:19 40.21162 5.76803 33954 ft 496 kts 81°
2026-05-07 15:19 40.22816 5.85505 33954 ft 495 kts 81°
2026-05-07 15:20 40.24469 5.94232 33955 ft 495 kts 81°
2026-05-07 15:20 40.26117 6.02990 33958 ft 495 kts 81°
2026-05-07 15:21 40.27829 6.11720 33937 ft 496 kts 79°
2026-05-07 15:21 40.29742 6.20421 33955 ft 497 kts 78°
2026-05-07 15:22 40.31673 6.29115 33977 ft 497 kts 78°
2026-05-07 15:22 40.33552 6.37851 33972 ft 498 kts 79°
2026-05-07 15:23 40.35387 6.46600 33951 ft 498 kts 79°
2026-05-07 15:23 40.37227 6.55377 33942 ft 499 kts 79°
2026-05-07 15:24 40.39078 6.64172 33951 ft 500 kts 79°
2026-05-07 15:24 40.40907 6.72906 33949 ft 500 kts 79°
2026-05-07 15:25 40.42747 6.81712 33965 ft 500 kts 79°
2026-05-07 15:25 40.44586 6.90532 33947 ft 501 kts 78°
2026-05-07 15:26 40.46420 6.99356 33952 ft 501 kts 78°
2026-05-07 15:26 40.48239 7.08198 33952 ft 502 kts 78°
2026-05-07 15:27 40.50054 7.17058 33954 ft 502 kts 79°
2026-05-07 15:27 40.51862 7.25907 33965 ft 502 kts 79°
2026-05-07 15:28 40.53652 7.34730 33957 ft 502 kts 79°
2026-05-07 15:28 40.55439 7.43594 33970 ft 502 kts 79°
2026-05-07 15:29 40.56764 7.52542 33975 ft 496 kts 88°
2026-05-07 15:29 40.57540 7.61566 33943 ft 496 kts 88°
2026-05-07 15:30 40.58323 7.70608 33942 ft 497 kts 88°
2026-05-07 15:30 40.59099 7.79647 33947 ft 498 kts 88°
2026-05-07 15:31 40.59866 7.88671 33954 ft 498 kts 88°
2026-05-07 15:31 40.60623 7.97733 33933 ft 498 kts 88°
2026-05-07 15:32 40.61374 8.06813 33933 ft 499 kts 88°
2026-05-07 15:32 40.62115 8.15865 33950 ft 501 kts 88°
2026-05-07 15:33 40.63181 8.24896 33954 ft 506 kts 77°
2026-05-07 15:33 40.65712 8.33550 33955 ft 509 kts 69°
2026-05-07 15:34 40.68440 8.42154 33933 ft 510 kts 69°
2026-05-07 15:34 40.71166 8.50816 33931 ft 511 kts 69°
2026-05-07 15:35 40.73882 8.59489 33935 ft 512 kts 69°
2026-05-07 15:35 40.76578 8.68122 33945 ft 512 kts 69°
2026-05-07 15:36 40.79280 8.76803 33922 ft 512 kts 69°
2026-05-07 15:36 40.81988 8.85515 33946 ft 514 kts 69°
2026-05-07 15:37 40.84699 8.94272 33953 ft 514 kts 69°
2026-05-07 15:37 40.87403 9.03042 33955 ft 515 kts 69°
2026-05-07 15:38 40.89669 9.10396 33931 ft 515 kts 69°
2026-05-07 15:38 40.92344 9.19107 33940 ft 515 kts 69°
2026-05-07 15:39 40.95012 9.27856 33956 ft 515 kts 69°
2026-05-07 15:39 40.97685 9.36651 33982 ft 516 kts 69°
2026-05-07 15:40 41.00364 9.45464 33992 ft 516 kts 69°
2026-05-07 15:40 41.03053 9.54327 33979 ft 515 kts 69°
2026-05-07 15:41 41.05702 9.63115 33993 ft 515 kts 69°
2026-05-07 15:41 41.08334 9.71894 33992 ft 514 kts 69°
2026-05-07 15:42 41.10976 9.80716 33986 ft 514 kts 69°
2026-05-07 15:42 41.13593 9.89556 33973 ft 514 kts 69°
2026-05-07 15:43 41.16188 9.98396 33995 ft 514 kts 69°
2026-05-07 15:43 41.18776 10.07226 33964 ft 513 kts 69°
2026-05-07 15:44 41.20087 10.11663 33079 ft 515 kts 69°
2026-05-07 15:44 41.21385 10.16031 32679 ft 501 kts 69°
2026-05-07 15:44 41.22653 10.20289 32186 ft 490 kts 69°
2026-05-07 15:44 41.23893 10.24458 31704 ft 479 kts 69°
2026-05-07 15:45 41.25088 10.28490 31255 ft 470 kts 69°
2026-05-07 15:45 41.26265 10.32481 30805 ft 460 kts 70°
2026-05-07 15:45 41.27417 10.36401 30298 ft 454 kts 70°
2026-05-07 15:45 41.28556 10.40272 29881 ft 450 kts 70°
2026-05-07 15:46 41.30819 10.47990 29024 ft 445 kts 69°
2026-05-07 15:46 41.31934 10.51817 28619 ft 443 kts 69°
2026-05-07 15:46 41.33042 10.55631 28198 ft 441 kts 69°
2026-05-07 15:47 41.34141 10.59426 27789 ft 438 kts 69°
2026-05-07 15:47 41.35235 10.63190 27400 ft 435 kts 68°
2026-05-07 15:47 41.36324 10.66931 27006 ft 432 kts 68°
2026-05-07 15:47 41.37407 10.70660 26617 ft 429 kts 68°
2026-05-07 15:48 41.38479 10.74354 26233 ft 427 kts 68°
2026-05-07 15:48 41.39532 10.77982 25851 ft 424 kts 68°
2026-05-07 15:48 41.40587 10.81625 25469 ft 421 kts 68°
2026-05-07 15:48 41.41640 10.85277 25081 ft 418 kts 67°
2026-05-07 15:49 41.42676 10.88881 24690 ft 416 kts 67°
2026-05-07 15:49 41.43708 10.92468 24279 ft 414 kts 67°
2026-05-07 15:49 41.44737 10.96050 23896 ft 412 kts 66°
2026-05-07 15:49 41.45762 10.99615 23477 ft 410 kts 66°
2026-05-07 15:50 41.46774 11.03133 23052 ft 407 kts 67°
2026-05-07 15:50 41.47784 11.06650 22627 ft 404 kts 67°
2026-05-07 15:50 41.48778 11.10146 22216 ft 400 kts 68°
2026-05-07 15:50 41.49752 11.13604 21800 ft 396 kts 68°
2026-05-07 15:51 41.50714 11.17030 21393 ft 393 kts 68°
2026-05-07 15:51 41.51665 11.20424 20984 ft 390 kts 68°
2026-05-07 15:51 41.52606 11.23783 20591 ft 387 kts 69°
2026-05-07 15:51 41.53553 11.27167 20175 ft 384 kts 69°
2026-05-07 15:52 41.54483 11.30499 19771 ft 382 kts 69°
2026-05-07 15:52 41.55401 11.33796 19368 ft 379 kts 69°
2026-05-07 15:52 41.56317 11.37083 18971 ft 376 kts 69°
2026-05-07 15:52 41.57228 11.40345 18575 ft 374 kts 70°
2026-05-07 15:53 41.58121 11.43544 18175 ft 372 kts 70°
2026-05-07 15:53 41.59026 11.46764 17745 ft 368 kts 70°
2026-05-07 15:53 41.59935 11.49974 17350 ft 364 kts 70°
2026-05-07 15:53 41.60820 11.53101 16963 ft 361 kts 70°
2026-05-07 15:54 41.61702 11.56226 16577 ft 357 kts 69°
2026-05-07 15:54 41.62574 11.59323 16180 ft 354 kts 69°
2026-05-07 15:54 41.63441 11.62400 15802 ft 351 kts 69°
2026-05-07 15:54 41.64295 11.65441 15423 ft 348 kts 70°
2026-05-07 15:55 41.65143 11.68472 15034 ft 345 kts 70°
2026-05-07 15:55 41.65980 11.71462 14670 ft 342 kts 70°
2026-05-07 15:55 41.66811 11.74426 14302 ft 340 kts 70°
2026-05-07 15:55 41.67637 11.77371 13931 ft 337 kts 70°
2026-05-07 15:56 41.68445 11.80272 13545 ft 335 kts 70°
2026-05-07 15:56 41.69267 11.83227 13121 ft 333 kts 70°
2026-05-07 15:56 41.70060 11.86080 12697 ft 332 kts 70°
2026-05-07 15:56 41.70862 11.88974 12305 ft 330 kts 70°
2026-05-07 15:57 41.71653 11.91840 11938 ft 327 kts 70°
2026-05-07 15:57 41.72442 11.94696 11568 ft 326 kts 70°
2026-05-07 15:57 41.73234 11.97539 11202 ft 326 kts 69°
2026-05-07 15:57 41.74433 12.00107 10846 ft 328 kts 42°
2026-05-07 15:58 41.76367 12.01600 10480 ft 317 kts 13°
2026-05-07 15:58 41.78477 12.01688 10122 ft 296 kts 344°
2026-05-07 15:58 41.80394 12.00925 9753 ft 280 kts 340°
2026-05-07 15:58 41.82209 12.00155 9447 ft 271 kts 341°
2026-05-07 15:59 41.84002 11.99388 9161 ft 270 kts 341°
2026-05-07 15:59 41.85787 11.98623 8905 ft 267 kts 340°
2026-05-07 15:59 41.87554 11.97867 8641 ft 266 kts 340°
2026-05-07 15:59 41.89317 11.97118 8389 ft 266 kts 341°
2026-05-07 16:00 41.91078 11.96375 8083 ft 264 kts 341°
2026-05-07 16:00 41.92827 11.95638 7782 ft 263 kts 341°
2026-05-07 16:00 41.94570 11.94898 7480 ft 262 kts 342°
2026-05-07 16:00 41.96357 11.94484 7151 ft 262 kts
2026-05-07 16:01 41.98097 11.95065 6851 ft 257 kts 25°
2026-05-07 16:01 41.99703 11.96097 6510 ft 254 kts 26°
2026-05-07 16:01 42.01277 11.97126 6150 ft 250 kts 26°
2026-05-07 16:01 42.02825 11.98143 5779 ft 247 kts 26°
2026-05-07 16:02 42.04371 11.99156 5454 ft 244 kts 26°
2026-05-07 16:02 42.05848 12.00121 5312 ft 227 kts 26°
2026-05-07 16:02 42.07153 12.01247 5127 ft 221 kts 43°
2026-05-07 16:02 42.08108 12.02841 4873 ft 218 kts 62°
2026-05-07 16:03 42.08635 12.04715 4590 ft 215 kts 78°
2026-05-07 16:03 42.08715 12.06688 4260 ft 213 kts 95°
2026-05-07 16:03 42.08338 12.08616 3917 ft 213 kts 113°
2026-05-07 16:03 42.07544 12.10304 3613 ft 214 kts 130°
2026-05-07 16:04 42.06532 12.11772 3254 ft 213 kts 132°
2026-05-07 16:04 42.05526 12.13236 2986 ft 212 kts 132°
2026-05-07 16:04 42.04519 12.14708 2949 ft 214 kts 132°
2026-05-07 16:04 42.03511 12.16186 2901 ft 214 kts 133°
2026-05-07 16:05 42.02502 12.17661 2867 ft 213 kts 132°
2026-05-07 16:05 42.01419 12.18896 2616 ft 199 kts 149°
2026-05-07 16:05 42.00160 12.19610 2530 ft 194 kts 163°
2026-05-07 16:05 41.98879 12.20148 2485 ft 193 kts 163°
2026-05-07 16:06 41.97608 12.20684 2473 ft 184 kts 164°
2026-05-07 16:06 41.96425 12.21183 2383 ft 178 kts 163°
2026-05-07 16:06 41.95247 12.21678 2178 ft 172 kts 162°
2026-05-07 16:06 41.94127 12.22149 1965 ft 171 kts 163°
2026-05-07 16:07 41.92979 12.22631 1755 ft 171 kts 164°
2026-05-07 16:07 41.91864 12.23099 1521 ft 167 kts 164°
2026-05-07 16:07 41.90791 12.23548 1250 ft 160 kts 165°
2026-05-07 16:07 41.89746 12.23989 1062 ft 155 kts 164°
2026-05-07 16:08 41.88723 12.24422 870 ft 154 kts 165°
2026-05-07 16:08 41.87712 12.24850 719 ft 152 kts 167°
2026-05-07 16:08 41.86690 12.25282 521 ft 154 kts 166°
2026-05-07 16:08 41.85678 12.25701 330 ft 152 kts 167°
2026-05-07 16:09 41.84663 12.26127 114 ft 153 kts 167°
2026-05-07 16:09 41.83653 12.26544 30 ft 148 kts 167°
2026-05-07 16:09 41.82796 12.26900 14 ft 105 kts 162°
2026-05-07 16:09 41.82262 12.27129 11 ft 55 kts 162°
2026-05-07 16:10 41.81953 12.27256 12 ft 40 kts 162°
2026-05-07 16:10 41.81728 12.27353 14 ft 28 kts 163°
2026-05-07 16:10 41.81577 12.27412 14 ft 18 kts 163°
2026-05-07 16:10 41.81453 12.27405 13 ft 19 kts 194°
2026-05-07 16:11 41.81366 12.27311 12 ft 13 kts 241°
2026-05-07 16:11 41.81298 12.27233 13 ft 14 kts 200°
2026-05-07 16:11 41.81203 12.27246 12 ft 14 kts 162°
2026-05-07 16:11 41.81104 12.27288 12 ft 15 kts 163°
2026-05-07 16:12 41.81001 12.27329 12 ft 14 kts 162°
2026-05-07 16:12 41.80900 12.27350 12 ft 15 kts 189°
2026-05-07 16:12 41.80795 12.27324 12 ft 16 kts 191°
2026-05-07 16:12 41.80688 12.27281 12 ft 16 kts 218°
2026-05-07 16:13 41.80633 12.27147 13 ft 17 kts 250°
2026-05-07 16:13 41.80594 12.27002 13 ft 16 kts 249°
2026-05-07 16:13 41.80560 12.26874 15 ft 13 kts 250°
2026-05-07 16:13 41.80528 12.26763 14 ft 13 kts 248°
2026-05-07 16:14 41.80494 12.26641 15 ft 16 kts 250°
2026-05-07 16:14 41.80454 12.26485 15 ft 18 kts 251°
2026-05-07 16:14 41.80402 12.26374 15 ft 13 kts 204°
2026-05-07 16:14 41.80319 12.26387 14 ft 11 kts 162°
2026-05-07 16:15 41.80245 12.26411 15 ft 11 kts 176°
2026-05-07 16:15 41.80169 12.26378 14 ft 12 kts 204°
2026-05-07 16:15 41.80086 12.26327 15 ft 14 kts 206°
2026-05-07 16:15 41.79995 12.26269 14 ft 13 kts 205°
2026-05-07 16:16 41.79922 12.26224 14 ft 10 kts 204°
2026-05-07 16:16 41.79902 12.26212 14 ft 0 kts 204°
2026-05-07 16:16 41.79865 12.26190 16 ft 11 kts 204°
2026-05-07 16:17 41.79810 12.26155 14 ft 0 kts 205°
2026-05-07 16:18 41.79781 12.26132 16 ft 9 kts 216°
2026-05-07 16:19 41.79730 12.26091 14 ft 7 kts 206°
2026-05-07 16:19 41.79678 12.26058 16 ft 9 kts 206°
2026-05-07 16:19 41.79622 12.26021 14 ft 6 kts 210°
2026-05-07 16:19 41.79615 12.26006 14 ft 1 kts 245°
2026-05-07 16:20 41.79614 12.25989 14 ft 1 kts 270°
2026-05-07 16:20 41.79614 12.25986 14 ft 1 kts 275°
2026-05-07 16:20 41.79620 12.25961 14 ft 2 kts 290°
2026-05-07 16:20 41.79624 12.25949 14 ft 0 kts 292°
2026-05-07 16:21 41.79626 12.25943 15 ft 1 kts 294°
2026-05-07 16:26 41.79625 12.25942 14 ft 0 kts 295°